FW7308 Weather Reports


Display with metric or nautical units.
time (UTC)temp
F
wind
direction
speed
MPH
gust
MPH
rain 1hr
in
rain 24hr
in
rain mn
in
humidity
%
barometer
mb
20260508102143 39 330 1.0 1.0 0.00 0.00 0.00 69 1010.5
20260508101641 39 336 0.0 1.0 0.00 0.00 0.00 73 1010.5
20260508101140 40 327 0.0 1.0 0.00 0.00 0.00 70 1010.1
20260508100641 40 327 1.0 1.0 0.00 0.00 0.00 70 1010.3
20260508100140 40 0.0 0.0 0.00 0.00 0.00 71 1010.5
20260508095640 40 334 1.0 2.0 0.00 0.00 0.00 70 1010.1
20260508095138 39 329 1.0 1.0 0.00 0.00 0.00 71 1010.5
20260508094640 38 330 1.0 2.0 0.00 0.00 0.00 75 1010.3
20260508094139 38 337 1.0 1.0 0.00 0.00 0.00 75 1010.1
20260508093638 37 327 2.0 2.0 0.00 0.00 0.00 76 1010.1
20260508093137 37 335 1.0 1.0 0.00 0.00 0.00 77 1010.1
20260508092638 37 323 1.0 2.0 0.00 0.00 0.00 79 1010.1
20260508092138 36 331 1.0 1.0 0.00 0.00 0.00 80 1010.1
20260508091638 36 325 1.0 1.0 0.00 0.00 0.00 80 1010.1
20260508091136 35 336 1.0 1.0 0.00 0.00 0.00 83 1010.1
20260508090637 35 326 2.0 2.0 0.00 0.00 0.00 85 1010.1
20260508090137 35 335 1.0 1.0 0.00 0.00 0.00 82 1010.1
20260508085636 35 331 2.0 2.0 0.00 0.00 0.00 84 1010.1
20260508085137 35 323 2.0 2.0 0.00 0.00 0.00 83 1009.8
20260508084636 35 325 2.0 2.0 0.00 0.00 0.00 83 1010.0
20260508084135 35 321 2.0 2.0 0.00 0.00 0.00 81 1010.1
20260508083634 34 333 2.0 3.0 0.00 0.00 0.00 84 1010.1
20260508083135 34 324 2.0 2.0 0.00 0.00 0.00 85 1010.1
20260508082634 34 328 2.0 2.0 0.00 0.00 0.00 84 1010.1
20260508082133 34 324 3.0 3.0 0.00 0.00 0.00 84 1010.1
20260508081634 34 324 2.0 2.0 0.00 0.00 0.00 84 1010.1
20260508081134 33 324 3.0 3.0 0.00 0.00 0.00 84 1010.1
20260508080633 33 323 2.0 2.0 0.00 0.00 0.00 84 1010.1
20260508080132 34 327 3.0 3.0 0.00 0.00 0.00 84 1010.1
20260508075633 33 329 2.0 3.0 0.00 0.00 0.00 85 1010.1
20260508075132 33 326 2.0 2.0 0.00 0.00 0.00 85 1009.8
20260508074631 34 325 2.0 2.0 0.00 0.00 0.00 85 1009.8
20260508074130 34 325 2.0 2.0 0.00 0.00 0.00 85 1009.8
20260508073630 34 325 3.0 3.0 0.00 0.00 0.00 85 1009.8
20260508073131 34 323 2.0 3.0 0.00 0.00 0.00 84 1009.8
20260508072630 34 327 3.0 3.0 0.00 0.00 0.00 83 1009.8
20260508072129 34 323 2.0 2.0 0.00 0.00 0.00 85 1009.4
20260508071629 34 324 3.0 3.0 0.00 0.00 0.00 85 1009.6
20260508071130 34 324 3.0 3.0 0.00 0.00 0.00 85 1009.8
20260508070629 34 328 3.0 3.0 0.00 0.00 0.00 85 1009.8
20260508070128 34 325 3.0 3.0 0.00 0.00 0.00 84 1009.8
20260508065627 34 330 3.0 3.0 0.00 0.00 0.00 85 1009.8
20260508065127 34 326 3.0 3.0 0.00 0.00 0.00 85 1009.8
20260508064631 34 329 3.0 3.0 0.00 0.00 0.00 84 1009.8
20260508063626 34 326 3.0 3.0 0.00 0.00 0.00 83 1009.8
20260508063125 34 322 2.0 2.0 0.00 0.00 0.00 83 1009.8
20260508062627 34 331 3.0 3.0 0.00 0.00 0.00 84 1010.0
20260508062226 34 323 2.0 2.0 0.00 0.00 0.00 83 1009.8
20260508061725 34 328 3.0 3.0 0.00 0.00 0.00 84 1009.8
20260508061124 35 323 2.0 2.0 0.00 0.00 0.00 82 1009.8
20260508060628 34 327 2.0 2.0 0.00 0.00 0.00 82 1009.8
20260508060124 34 327 3.0 3.0 0.00 0.00 0.00 84 1009.8
20260508055625 34 323 2.0 2.0 0.00 0.00 0.00 84 1009.8
20260508055123 34 326 3.0 3.0 0.00 0.00 0.00 85 1010.0
20260508054123 34 331 3.0 3.0 0.00 0.00 0.00 85 1009.8
20260508053622 34 326 2.0 2.0 0.00 0.00 0.00 85 1009.8
20260508053122 35 323 2.0 2.0 0.00 0.00 0.00 84 1009.8
20260508052623 35 335 3.0 3.0 0.00 0.00 0.00 85 1009.8
20260508052122 35 326 2.0 2.0 0.00 0.00 0.00 85 1009.8
20260508051621 35 326 2.0 2.0 0.00 0.00 0.00 86 1010.0
20260508051120 35 327 2.0 2.0 0.00 0.00 0.00 86 1010.1
20260508050727 35 324 2.0 2.0 0.00 0.00 0.00 86 1010.3
20260508050123 35 327 2.0 2.0 0.00 0.00 0.00 86 1010.3
20260508045619 35 322 2.0 2.0 0.00 0.00 0.00 86 1010.5
20260508045120 35 328 2.0 2.0 0.00 0.00 0.00 85 1010.1
20260508044619 35 324 2.0 2.0 0.00 0.00 0.00 84 1010.5
20260508044119 35 331 1.0 2.0 0.00 0.00 0.00 84 1010.5
20260508043618 35 324 2.0 2.0 0.00 0.00 0.00 84 1010.5
20260508043117 35 326 1.0 1.0 0.00 0.00 0.00 84 1010.5
20260508042618 35 324 2.0 2.0 0.00 0.00 0.00 84 1010.5
20260508042117 35 324 1.0 2.0 0.00 0.00 0.00 84 1010.5
20260508041717 35 327 2.0 2.0 0.00 0.00 0.00 84 1010.5
20260508041116 35 326 2.0 2.0 0.00 0.00 0.00 83 1010.5
20260508040619 35 328 1.0 2.0 0.00 0.00 0.00 83 1010.5
20260508040147 36 327 1.0 2.0 0.00 0.00 0.00 82 1010.5
20260508035645 36 328 1.0 1.0 0.00 0.00 0.00 82 1010.5
20260508034644 36 324 2.0 2.0 0.00 0.00 0.00 82 1010.9
20260508033645 37 330 2.0 2.0 0.00 0.00 0.00 81 1010.5
20260508033143 36 331 2.0 2.0 0.00 0.00 0.00 82 1010.5
20260508032644 37 327 2.0 2.0 0.00 0.00 0.00 81 1010.7
20260508032144 37 328 2.0 2.0 0.00 0.00 0.00 81 1010.9
20260508031643 37 329 2.0 2.0 0.00 0.00 0.00 81 1010.5
20260508031142 37 324 1.0 1.0 0.00 0.00 0.00 81 1010.5
20260508030643 37 332 1.0 2.0 0.00 0.00 0.00 81 1010.5
20260508030142 37 326 1.0 1.0 0.00 0.00 0.00 80 1010.9
20260508025641 38 327 1.0 2.0 0.00 0.00 0.00 80 1010.5
20260508025141 38 332 1.0 1.0 0.00 0.00 0.00 79 1010.5
20260508024640 38 327 2.0 2.0 0.00 0.00 0.00 80 1010.9
20260508024141 39 327 2.0 2.0 0.00 0.00 0.00 78 1010.9
20260508023640 39 335 2.0 2.0 0.00 0.00 0.00 78 1010.7
20260508023140 39 326 2.0 2.0 0.00 0.00 0.00 78 1010.9
20260508022639 39 328 2.0 2.0 0.00 0.00 0.00 77 1010.9
20260508022140 39 327 2.0 2.0 0.00 0.00 0.00 78 1010.7
20260508021639 39 324 2.0 2.0 0.00 0.00 0.00 77 1010.9
20260508021139 39 324 2.0 2.0 0.00 0.00 0.00 78 1010.9
20260508020637 40 325 2.0 2.0 0.00 0.00 0.00 75 1010.9
20260508020137 40 329 2.0 2.0 0.00 0.00 0.00 75 1010.5
20260508015639 40 324 2.0 2.0 0.00 0.00 0.00 76 1010.5
20260508014636 40 334 2.0 3.0 0.00 0.00 0.00 75 1010.3
20260508014236 40 329 2.0 2.0 0.00 0.00 0.00 75 1010.5
20260508013638 40 327 2.0 2.0 0.00 0.00 0.00 76 1010.5
20260508013137 40 327 2.0 2.0 0.00 0.00 0.00 76 1010.1
20260508012235 41 325 2.0 2.0 0.00 0.00 0.00 75 1010.1
20260508011736 41 324 1.0 2.0 0.00 0.00 0.00 73 1010.0
20260508011135 41 325 1.0 1.0 0.00 0.00 0.00 72 1009.8
20260508010133 42 328 1.0 1.0 0.00 0.00 0.00 71 1009.8
20260508005634 42 328 1.0 1.0 0.00 0.00 0.00 69 1009.8
20260508005133 43 334 1.0 1.0 0.00 0.00 0.00 67 1009.8
20260508004632 43 336 1.0 1.0 0.00 0.00 0.00 69 1009.6
20260508004131 44 327 1.0 1.0 0.00 0.00 0.00 66 1009.4
20260508003633 44 328 1.0 1.0 0.00 0.00 0.00 66 1009.4
20260508003132 45 0.0 0.0 0.00 0.00 0.00 60 1009.8
20260508002633 45 0.0 0.0 0.00 0.00 0.00 61 1009.4
20260508002132 46 338 1.0 1.0 0.00 0.00 0.00 59 1009.4
20260508001631 47 332 0.0 1.0 0.00 0.00 0.00 55 1009.4
20260508001131 47 336 0.0 1.0 0.00 0.00 0.00 55 1009.1
20260508000630 48 0.0 0.0 0.00 0.00 0.00 53 1009.4
20260507235631 49 324 2.0 2.0 0.00 0.00 0.00 51 1009.1
20260507235129 49 326 1.0 2.0 0.00 0.00 0.00 50 1009.1
20260507234628 49 336 1.0 1.0 0.00 0.00 0.00 49 1009.1
20260507234128 49 282 3.0 5.0 0.00 0.00 0.00 49 1009.1
20260507233629 50 352 3.0 6.0 0.00 0.00 0.00 49 1009.1
20260507233130 50 317 3.0 5.0 0.00 0.00 0.00 47 1009.1
20260507232627 50 333 2.0 2.0 0.00 0.00 0.00 49 1009.1
20260507232227 50 335 2.0 5.0 0.00 0.00 0.00 47 1008.7
20260507231625 50 346 4.0 7.0 0.00 0.00 0.00 47 1008.9
20260507231126 51 303 3.0 6.0 0.00 0.00 0.00 47 1008.7
20260507230626 51 350 4.0 5.0 0.00 0.00 0.00 47 1008.7
20260507220121 55 287 6.0 9.0 0.00 0.00 0.00 43 1008.7
20260507215622 53 323 3.0 6.0 0.00 0.00 0.00 43 1008.4
20260507215122 54 296 4.0 6.0 0.00 0.00 0.00 44 1008.7
20260507214621 55 340 3.0 9.0 0.00 0.00 0.00 44 1008.7
20260507214122 54 327 6.0 8.0 0.00 0.00 0.00 44 1008.7
20260507213619 55 309 3.0 5.0 0.00 0.00 0.00 43 1008.7
20260507213120 55 309 4.0 6.0 0.00 0.00 0.00 43 1008.7
20260507212619 53 336 5.0 8.0 0.00 0.00 0.00 43 1008.7
20260507212118 55 320 7.0 9.0 0.00 0.00 0.00 42 1008.7
20260507211617 55 318 3.0 6.0 0.00 0.00 0.00 44 1008.7
20260507211119 55 41 5.0 7.0 0.00 0.00 0.00 43 1008.7
20260507210618 55 343 3.0 5.0 0.00 0.00 0.00 43 1008.7
20260507210117 55 321 4.0 6.0 0.00 0.00 0.00 44 1008.7
20260507205118 56 92 3.0 8.0 0.00 0.00 0.00 44 1008.4
20260507204617 56 329 3.0 7.0 0.00 0.00 0.00 44 1008.7
20260507204146 55 349 5.0 7.0 0.00 0.00 0.00 43 1008.7
20260507203645 56 29 2.0 5.0 0.00 0.00 0.00 44 1008.7
20260507203144 56 311 4.0 6.0 0.00 0.00 0.00 43 1008.4
20260507202647 56 287 5.0 7.0 0.00 0.00 0.00 41 1008.6
20260507202145 56 356 7.0 9.0 0.00 0.00 0.00 42 1008.7
20260507201647 55 302 6.0 10.0 0.00 0.00 0.00 44 1008.6
20260507201145 55 328 3.0 3.0 0.00 0.00 0.00 44 1008.7
20260507200644 55 349 4.0 8.0 0.00 0.00 0.00 45 1008.7
20260507200143 53 14 6.0 14.0 0.00 0.00 0.00 46 1008.7
20260507195642 54 301 7.0 10.0 0.00 0.00 0.00 42 1008.6
20260507195142 56 286 6.0 8.0 0.00 0.00 0.00 42 1008.7
20260507194643 55 16 3.0 6.0 0.00 0.00 0.00 43 1008.7
20260507194142 55 324 5.0 9.0 0.00 0.00 0.00 44 1008.7
20260507193142 54 288 8.0 13.0 0.00 0.00 0.00 44 1008.7
20260507192642 53 358 4.0 7.0 0.00 0.00 0.00 46 1008.7
20260507192141 53 348 3.0 6.0 0.00 0.00 0.00 45 1008.7
20260507191640 54 298 5.0 6.0 0.00 0.00 0.00 44 1008.7
20260507191139 55 291 7.0 11.0 0.00 0.00 0.00 43 1008.9
20260507190641 57 359 2.0 5.0 0.00 0.00 0.00 44 1009.1
20260507185639 56 277 3.0 6.0 0.00 0.00 0.00 44 1009.1
20260507185138 56 341 4.0 8.0 0.00 0.00 0.00 46 1009.1
20260507184639 55 343 5.0 8.0 0.00 0.00 0.00 42 1009.1
20260507184138 55 320 4.0 6.0 0.00 0.00 0.00 43 1009.1
20260507183637 56 332 5.0 8.0 0.00 0.00 0.00 42 1009.3
20260507183137 56 325 5.0 13.0 0.00 0.00 0.00 44 1009.4
20260507182638 54 358 5.0 8.0 0.00 0.00 0.00 46 1009.4
20260507182137 54 350 7.0 9.0 0.00 0.00 0.00 45 1009.3
20260507181637 54 348 4.0 8.0 0.00 0.00 0.00 46 1009.6
20260507181135 54 19 5.0 7.0 0.00 0.00 0.00 44 1009.4
20260507180637 55 23 6.0 9.0 0.00 0.00 0.00 44 1009.6
20260507180136 55 9 4.0 9.0 0.00 0.00 0.00 46 1009.4
20260507175635 55 349 6.0 14.0 0.00 0.00 0.00 45 1009.4
20260507175134 55 281 6.0 10.0 0.00 0.00 0.00 46 1009.4
20260507174633 55 312 5.0 6.0 0.00 0.00 0.00 45 1009.4
20260507174134 55 349 7.0 10.0 0.00 0.00 0.00 45 1009.4
20260507173634 55 321 6.0 11.0 0.00 0.00 0.00 48 1009.4
20260507173133 54 297 6.0 8.0 0.00 0.00 0.00 47 1009.4
20260507172632 53 352 5.0 7.0 0.00 0.00 0.00 48 1009.4
20260507172133 53 307 5.0 10.0 0.00 0.00 0.00 50 1009.4
20260507171632 54 351 10.0 13.0 0.00 0.00 0.00 49 1009.4
20260507171132 55 16 5.0 8.0 0.00 0.00 0.00 48 1009.4
20260507170631 53 310 4.0 7.0 0.00 0.00 0.00 49 1009.4
20260507170132 55 311 5.0 10.0 0.00 0.00 0.00 50 1009.4
20260507165631 53 350 3.0 5.0 0.00 0.00 0.00 48 1009.8
20260507164630 54 334 3.0 7.0 0.00 0.00 0.00 51 1010.1
20260507164129 54 331 5.0 9.0 0.00 0.00 0.00 50 1009.8
20260507163129 52 314 5.0 8.0 0.00 0.00 0.00 52 1010.1
20260507162628 51 353 4.0 7.0 0.00 0.00 0.00 53 1010.1
20260507162234 51 348 4.0 5.0 0.00 0.00 0.00 51 1010.5
20260507161632 51 324 5.0 10.0 0.00 0.00 0.00 53 1010.1
20260507161130 52 314 7.0 11.0 0.00 0.00 0.00 51 1010.1
20260507160627 52 325 7.0 9.0 0.00 0.00 0.00 50 1010.1
20260507160126 52 332 5.0 8.0 0.00 0.00 0.00 50 1010.3
20260507155627 52 16 2.0 6.0 0.00 0.00 0.00 52 1010.5
20260507155127 52 348 3.0 6.0 0.00 0.00 0.00 50 1010.5
20260507154626 52 351 8.0 10.0 0.00 0.00 0.00 50 1010.5
20260507154125 52 328 8.0 11.0 0.00 0.00 0.00 49 1010.5
20260507153626 51 10 8.0 14.0 0.00 0.00 0.00 49 1010.5
20260507153125 52 334 4.0 7.0 0.00 0.00 0.00 48 1010.5
20260507152624 51 314 5.0 9.0 0.00 0.00 0.00 51 1010.9
20260507152124 51 295 4.0 7.0 0.00 0.00 0.00 51 1010.5
20260507151625 51 303 5.0 9.0 0.00 0.00 0.00 48 1010.5
20260507151125 52 46 4.0 7.0 0.00 0.00 0.00 51 1010.5
20260507150623 52 346 4.0 10.0 0.00 0.00 0.00 50 1010.5
20260507150123 51 14 6.0 11.0 0.00 0.00 0.00 51 1010.5
20260507145625 50 293 3.0 8.0 0.00 0.00 0.00 50 1010.5
20260507145123 51 341 7.0 15.0 0.00 0.00 0.00 50 1010.5
20260507144622 51 326 5.0 6.0 0.00 0.00 0.00 52 1010.5
20260507144121 51 327 10.0 15.0 0.00 0.00 0.00 51 1010.7
20260507143623 51 354 4.0 8.0 0.00 0.00 0.00 52 1010.5
20260507143222 50 288 4.0 6.0 0.00 0.00 0.00 54 1010.5
20260507142722 50 327 6.0 13.0 0.00 0.00 0.00 54 1010.5
20260507142121 50 1 5.0 8.0 0.00 0.00 0.00 53 1010.5
20260507141622 49 320 9.0 14.0 0.00 0.00 0.00 54 1010.5
20260507141122 50 309 8.0 10.0 0.00 0.00 0.00 54 1010.5
20260507140620 50 297 4.0 6.0 0.00 0.00 0.00 59 1010.5
20260507140119 49 323 8.0 13.0 0.00 0.00 0.00 56 1010.5
20260507135719 49 12 6.0 10.0 0.00 0.00 0.00 57 1010.1
20260507135117 50 11 6.0 13.0 0.00 0.00 0.00 60 1010.5
20260507134619 50 325 7.0 13.0 0.00 0.00 0.00 62 1010.5
20260507134118 49 294 3.0 5.0 0.00 0.00 0.00 61 1010.1
20260507133717 49 349 5.0 6.0 0.00 0.00 0.00 63 1010.3
20260507133118 49 341 2.0 3.0 0.00 0.00 0.00 63 1010.1
20260507132617 49 335 3.0 6.0 0.00 0.00 0.00 66 1010.1
20260507132118 48 326 5.0 8.0 0.00 0.00 0.00 67 1010.1
20260507131617 49 337 2.0 3.0 0.00 0.00 0.00 71 1010.3
20260507131147 48 336 4.0 5.0 0.00 0.00 0.00 72 1010.1
20260507130646 49 317 4.0 6.0 0.00 0.00 0.00 74 1010.1
20260507130145 49 17 7.0 10.0 0.00 0.00 0.00 76 1010.1
20260507125646 49 331 3.0 3.0 0.00 0.00 0.00 76 1010.1
20260507124645 48 358 2.0 5.0 0.00 0.00 0.00 79 1010.1
20260507124144 48 306 2.0 3.0 0.00 0.00 0.00 81 1010.1
20260507123643 47 312 4.0 6.0 0.00 0.00 0.00 81 1010.1
20260507123145 47 354 3.0 5.0 0.00 0.00 0.00 88 1010.1
20260507122644 46 350 1.0 2.0 0.00 0.00 0.00 90 1010.0
20260507122142 44 340 3.0 7.0 0.00 0.00 0.00 91 1010.1
20260507121642 45 310 3.0 7.0 0.00 0.00 0.00 93 1010.0
20260507121142 45 323 1.0 2.0 0.00 0.00 0.00 94 1009.8
20260507120642 45 303 2.0 5.0 0.00 0.00 0.00 94 1009.8
20260507115641 45 343 2.0 3.0 0.00 0.00 0.00 96 1009.8
20260507115243 45 0.0 0.0 0.00 0.00 0.00 96 1009.8
20260507114644 45 0.0 0.0 0.00 0.00 0.00 96 1009.8
20260507114141 45 344 1.0 1.0 0.00 0.00 0.00 94 1009.8
20260507113639 45 338 1.0 2.0 0.00 0.00 0.00 95 1009.8
20260507112639 45 331 1.0 2.0 0.00 0.00 0.00 94 1009.8
20260507112138 45 330 1.0 2.0 0.00 0.00 0.00 93 1009.8
20260507111638 45 331 0.0 1.0 0.00 0.00 0.00 93 1009.8